STARLINK-5693 (55482 NORAD) Tracking and Keplerian Element Data

This shows tracking and keplerian element data for the satellite.

Feedback or suggestion? Click here.




ElementValue
Catalog55482
NameSTARLINK-5693
Epoch Orbit130
Epoch Day84.91667824
Epoch Year2023
RAAN86.3016
Inclination42.9999
Eccentricity0.0001349
Argument of Perigee251.7382
Mean Anonmoly208.6418
Mean Motion15.04471557
Decay Rate0.00050729
L11 55482U 23015AK 23084.91667824 .00050729 00000+0 35554-2 0 9991
L22 55482 42.9999 86.3016 0001349 251.7382 208.6418 15.04471557 1309



Live tracking and technical data element details for STARLINK-5693 (NORAD 55482). STARLINK-5693 can be tracked NOW for your location showing map with azimuth and elevation plus other details from your city location.







IsCatalogInMostPopularTable: catalog: 55482, numindb: -1

Insert: records affected: 1


GetName: 55482 STARLINK-5693

Hit Count: inserted at: Tue, 28 Mar 2023 02:42:19 GMT